User: anonymous
Location: Caltech
(34.1382°N, 118.1253°W)
Time: 02:08:57
(UTC-07:00)
Language:

Iridium 14 - Orbit

View from above orbital plane
View from above orbital plane
View from above satellite
View from above satellite

Ground track
Ground track

The orbit data is extracted from the following two-line orbital elements,

1 25777U 99032A   14241.34464506  .00000014  00000-0  41530-5 0   506
2 25777 086.4471 291.4848 0009977 051.8122 308.4464 14.42024915808060
Epoch (UTC): 29 August 2014 08:16:17
Eccentricity: 0.0009977
inclination: 86.4471°
perigee height: 745 km
apogee height: 759 km
right ascension of ascending node: 291.4848°
argument of perigee: 51.8122°
revolutions per day: 14.42024915
mean anomaly at epoch: 308.4464°
orbit number at epoch: 80806

The dashed part of the orbit path shows where the satellite is in the earth's shadow,  

DLR